Location: D�derode
(51.8092°N, 10.1065°E)
Time: 06:08:59
(UTC+00:00)

H-2A R/B - Pass Details

Date: 01 December 2020
Orbit: 578 x 654 km, 98.5° (Epoch: 23 January)

Event Time Altitude Azimuth Distance (km) Brightness Sun altitude
Exits shadow 17:51:54 - 358° (N) 2,243 4.9 -23.6°
Reaches altitude 10° 17:52:45 10° 352° (N) 1,945 4.6 -23.8°
Maximum altitude 17:56:08 24° 299° (WNW) 1,268 4.2 -24.3°
Drops below altitude 10° 17:59:33 10° 245° (WSW) 1,969 5.6 -24.8°
Sets 18:02:04 0° 232° (SW) 2,884 6.3 -25.2°
